Regional Weather Roundup
Issued by NWS

Home | Current Version | Previous Version | Text Only | Print | Product List | Glossary On
Versions: 1 2 3 4 5 6 7 8 9 10 11 12 13 14 15 16 17 18 19 20 21 22 23 24 25 26 27 28 29 30 31 32 33 34 35 36 37 38 39 40 41 42 43 44 45 46 47 48 49 50
039
ASUS44 KJAN 261010
RWRMS

MISSISSIPPI HOURLY WEATHER ROUNDUP
NATIONAL WEATHER SERVICE JACKSON MS
400 AM CST WED NOV 26 2014

NOTE: "FAIR: INDICATES FEW OR NO CLOUDS BELOW 12,000 FEET WITH NO
SIGNIFICANT WEATHER AND/OR OBSTRUCTIONS TO VISIBILITY.

MSZ001>002-007>008-010>013-018>021-025>028-034>036-261100-
NORTHWEST MISSISSIPPI

CITY           SKY/WX    TMP DP  RH WIND       PRES   REMARKS
CLARKSDALE     FAIR      32  30  93 CALM      30.17S
CLEVELAND      FAIR      35  31  84 S5        30.16F WCI  31
GREENWOOD      CLEAR     28  25  88 CALM      30.18S
GREENVILLE     PTCLDY    34  30  85 S3        30.16F
GRENADA        FAIR      28  27  93 CALM      30.19R
OLIVE BRANCH   CLEAR     28  28 100 CALM      30.14F
OXFORD         FAIR      25  25 100 CALM      30.18R
TUNICA         SUNNY     32  30  93 SE3       30.16F
$$

MSZ003>006-009-014>017-022>024-029>033-037>039-261100-
NORTHEAST MISSISSIPPI

CITY           SKY/WX    TMP DP  RH WIND       PRES   REMARKS
COLUMBUS AFB   CLEAR     28  26  91 CALM      30.17S
CORINTH        FAIR      27  25  93 CALM      30.16R
GOLDN TRIANGLE CLEAR     28  23  80 CALM      30.17R
STARKVILLE       N/A     27  27 100 CALM      30.18R
TUPELO         CLEAR     30  25  81 E3        30.16F
$$

MSZ040-058-261100-
CENTRAL MISSISSIPPI

CITY           SKY/WX    TMP DP  RH WIND       PRES   REMARKS
JACKSON INTL   CLEAR     29  27  92 CALM      30.18S
JACKSON HAWKNS CLEAR     30  28  92 S3        30.19R
MERIDIAN KEY   CLEAR     29  27  92 CALM      30.19R
MERIDIAN NAS   CLEAR     30  26  85 W5        30.18S WCI  25
RAYMOND        FAIR      28  25  86 MISG      30.19S
VICKSBURG      PTCLDY    32  30  92 CALM      30.19S
$$

MSZ059>079-261100-
SOUTH MISSISSIPPI

CITY           SKY/WX    TMP DP  RH WIND       PRES   REMARKS
BROOKHAVEN     FAIR      30  30 100 CALM      30.20R
HATTIESBURG    CLEAR     31  29  92 CALM      30.20S
MCCOMB         CLEAR     31  27  85 CALM      30.19R
NATCHEZ        MOCLDY    34  30  86 CALM      30.19S
PINE BELT      CLEAR     30  27  86 CALM      30.19S
$$

MSZ080>082-261100-
COASTAL MISSISSIPPI

CITY           SKY/WX    TMP DP  RH WIND       PRES   REMARKS
BILOXI         CLEAR     40  32  72 NW6       30.19S
PASCAGOULA     CLEAR     35  30  82 CALM      30.19S
GULFPORT       CLEAR     36  31  82 NW3       30.19S
$$



USA.gov is the U.S. government's official web portal to all federal, state and local government web resources and services.